Portada
METAR-TAF:

METAR-TAF

Aeroports :

Cuenca, Equador

latitud: 02-53-22S, longitud: 078-59-04W, altitud: 2532 m

Observació

L'informe es va fer fa 17 minuts, a les 08:00 UTC
Vent 2 kt amb direcció variable
Temperatura 13°C
Humitat 94%
Pressió 1025 hPa

METAR: SECU 210800Z VRB02KT ////NDV ////// 13/12 Q1025

Hora: 03:17 (08:17 UTC)


TAF: manca

Observacions i pronòstics meteorològics de més de 4000 aeroports (METAR i TAF).

Les estacions disponibles són els punts grocs i vermells al mapa.

Posi el ratolí al punt desitjat per veure el nom de l'estació.

Feu clic per veure les observacions i els pronòstics meteorològics.

Per canviar el mapa: feu clic els botons verds amb una creu de color negre per apropar; al botó verd amb un guió per allunyar la imatge; o en les fletxes verdes per a mapes adjacents.


METAR-TAF: